DIMDF EDNY-LOWK

Flight info

Callsign DIMDF
Flight time N/A
Altitude 13000
Route KPT1E KPT Z999 BEMKI L607 XEBIX Z2 UMVEG DCT EVAXI EVAXI2A
Aircraft BE58/L-SDFGRY/C

Departure

Time 2026-04-24 19:46
Airport Bodensee Airport Friedrichshafen (EDNY)

Arrival

Time N/A
Airport Klagenfurt Airport (LOWK)
Time Latitude Longitude Altitude Speed Heading
2026-04-24 19:16 47.67218 9.51996 1361 ft 0 kts 181°
2026-04-24 19:39 47.67213 9.51993 1361 ft 3 kts 226°
2026-04-24 19:39 47.67237 9.51957 1361 ft 8 kts 338°
2026-04-24 19:39 47.67289 9.52026 1361 ft 13 kts 63°
2026-04-24 19:39 47.67336 9.52126 1362 ft 6 kts 347°
2026-04-24 19:40 47.67344 9.52123 1362 ft 0 kts 342°
2026-04-24 19:40 47.67345 9.52122 1362 ft 2 kts 342°
2026-04-24 19:40 47.67396 9.52125 1361 ft 9 kts 351°
2026-04-24 19:41 47.67407 9.52119 1361 ft 0 kts 331°
2026-04-24 19:44 47.67426 9.52104 1360 ft 10 kts 331°
2026-04-24 19:45 47.67476 9.52043 1359 ft 7 kts 280°
2026-04-24 19:45 47.67472 9.52018 1358 ft 0 kts 239°
2026-04-24 19:45 47.67472 9.52016 1358 ft 5 kts 239°
2026-04-24 19:46 47.67276 9.51505 1359 ft 99 kts 241°
2026-04-24 19:46 47.66898 9.50480 1621 ft 122 kts 242°
2026-04-24 19:46 47.66483 9.49308 1944 ft 135 kts 243°
2026-04-24 19:46 47.66018 9.47979 2235 ft 154 kts 243°
2026-04-24 19:47 47.65511 9.46562 2671 ft 155 kts 243°
2026-04-24 19:47 47.65045 9.45170 3128 ft 154 kts 244°
2026-04-24 19:47 47.64614 9.43833 3472 ft 156 kts 244°
2026-04-24 19:47 47.64149 9.42402 3794 ft 155 kts 245°
2026-04-24 19:48 47.63480 9.41203 4127 ft 153 kts 211°
2026-04-24 19:48 47.62422 9.40877 4170 ft 164 kts 168°
2026-04-24 19:48 47.60924 9.43089 4600 ft 160 kts 96°
2026-04-24 19:49 47.61489 9.46203 5057 ft 145 kts 74°
2026-04-24 19:49 47.61636 9.49120 5434 ft 148 kts 92°
2026-04-24 19:50 47.61320 9.53639 6053 ft 140 kts 95°
2026-04-24 19:50 47.61213 9.55059 6302 ft 137 kts 95°
2026-04-24 19:51 47.61172 9.57807 6786 ft 131 kts 76°
2026-04-24 19:51 47.61380 9.59105 7029 ft 128 kts 77°
2026-04-24 19:52 47.61759 9.61621 7504 ft 121 kts 76°
2026-04-24 19:52 47.61882 9.62435 7684 ft 118 kts 76°
2026-04-24 19:52 47.62057 9.63599 7921 ft 113 kts 76°
2026-04-24 19:52 47.62225 9.64700 8163 ft 106 kts 75°
2026-04-24 19:53 47.62380 9.65714 8402 ft 98 kts 75°
2026-04-24 19:53 47.62529 9.66672 8647 ft 95 kts 75°
2026-04-24 19:53 47.62850 9.68793 9029 ft 114 kts 75°
2026-04-24 19:54 47.63021 9.69944 9209 ft 117 kts 75°
2026-04-24 19:54 47.63199 9.71133 9400 ft 119 kts 75°
2026-04-24 19:54 47.63377 9.72327 9573 ft 118 kts 75°
2026-04-24 19:54 47.63553 9.73499 9746 ft 114 kts 75°
2026-04-24 19:55 47.63667 9.74260 9819 ft 112 kts 74°
2026-04-24 19:55 47.63886 9.75708 9907 ft 108 kts 74°
2026-04-24 19:55 47.64053 9.76810 9891 ft 113 kts 74°
2026-04-24 19:55 47.64233 9.78002 9848 ft 122 kts 75°
2026-04-24 19:56 47.64420 9.79254 9844 ft 127 kts 75°
2026-04-24 19:56 47.64616 9.80563 9839 ft 133 kts 75°
2026-04-24 19:56 47.64819 9.81920 9835 ft 137 kts 75°
2026-04-24 19:56 47.65029 9.83321 9835 ft 141 kts 75°
2026-04-24 19:57 47.65238 9.84723 9829 ft 143 kts 75°
2026-04-24 19:57 47.65455 9.86175 9827 ft 145 kts 75°
2026-04-24 19:57 47.65675 9.87648 9835 ft 147 kts 75°
2026-04-24 19:57 47.65896 9.89132 9829 ft 148 kts 75°
2026-04-24 19:58 47.66130 9.90626 9828 ft 149 kts 69°
2026-04-24 19:58 47.66797 9.91677 9828 ft 141 kts 15°
2026-04-24 19:58 47.67700 9.91482 9835 ft 134 kts 321°
2026-04-24 19:58 47.68403 9.90500 9675 ft 145 kts 312°
2026-04-24 19:59 47.69104 9.89340 9493 ft 155 kts 310°
2026-04-24 19:59 47.69822 9.88084 9314 ft 164 kts 309°
2026-04-24 19:59 47.70567 9.86749 9132 ft 172 kts 309°
2026-04-24 19:59 47.71338 9.85348 8951 ft 178 kts 308°
2026-04-24 20:00 47.72130 9.83901 8765 ft 183 kts 308°
2026-04-24 20:00 47.72938 9.82419 8583 ft 186 kts 308°
2026-04-24 20:00 47.73744 9.80940 8402 ft 179 kts 308°
2026-04-24 20:00 47.74505 9.79545 8215 ft 169 kts 308°
2026-04-24 20:01 47.75232 9.78213 8032 ft 164 kts 308°
2026-04-24 20:01 47.76036 9.77059 7879 ft 162 kts 332°
2026-04-24 20:01 47.77129 9.76950 7707 ft 162 kts 17°
2026-04-24 20:01 47.77963 9.78027 7541 ft 163 kts 60°
2026-04-24 20:02 47.78268 9.79064 7358 ft 168 kts 68°
2026-04-24 20:02 47.78469 9.80101 7180 ft 172 kts 78°
2026-04-24 20:02 47.78392 9.81574 6942 ft 176 kts 113°
2026-04-24 20:02 47.77824 9.83196 6653 ft 179 kts 106°
2026-04-24 20:03 47.77550 9.85017 6357 ft 182 kts 104°
2026-04-24 20:03 47.77217 9.86842 6044 ft 184 kts 106°
2026-04-24 20:03 47.76860 9.88670 5736 ft 185 kts 107°
2026-04-24 20:03 47.76178 9.90244 5430 ft 183 kts 144°
2026-04-24 20:04 47.74985 9.90748 5134 ft 182 kts 186°
2026-04-24 20:04 47.73912 9.89957 4833 ft 169 kts 229°
2026-04-24 20:04 47.73520 9.88415 4524 ft 157 kts 263°
2026-04-24 20:04 47.73552 9.86856 4223 ft 148 kts 293°
2026-04-24 20:05 47.73983 9.85516 3938 ft 143 kts 300°
2026-04-24 20:05 47.74312 9.84135 3705 ft 140 kts 287°
2026-04-24 20:05 47.74530 9.82768 3506 ft 137 kts 284°
2026-04-24 20:05 47.74707 9.81452 3324 ft 136 kts 283°
2026-04-24 20:06 47.74865 9.80078 3152 ft 133 kts 282°
2026-04-24 20:06 47.74999 9.78731 3074 ft 127 kts 280°
2026-04-24 20:06 47.75109 9.77457 3031 ft 121 kts 278°
2026-04-24 20:06 47.75189 9.76282 3027 ft 118 kts 278°
2026-04-24 20:07 47.75223 9.75465 3023 ft 117 kts 271°
2026-04-24 20:07 47.75107 9.73921 3008 ft 114 kts 261°
2026-04-24 20:07 47.74927 9.72779 3003 ft 112 kts 256°
2026-04-24 20:07 47.74703 9.71709 3010 ft 108 kts 252°
2026-04-24 20:08 47.74440 9.70658 3008 ft 110 kts 250°
2026-04-24 20:08 47.74142 9.69612 3012 ft 110 kts 248°
2026-04-24 20:08 47.73825 9.68583 3003 ft 109 kts 245°
2026-04-24 20:08 47.73489 9.67571 3001 ft 109 kts 244°
2026-04-24 20:09 47.73145 9.66581 2999 ft 107 kts 243°
2026-04-24 20:09 47.72780 9.65613 3011 ft 108 kts 240°
2026-04-24 20:09 47.72387 9.64658 3009 ft 108 kts 239°
2026-04-24 20:09 47.71988 9.63708 3009 ft 108 kts 239°
2026-04-24 20:10 47.71600 9.62755 3012 ft 110 kts 240°
2026-04-24 20:10 47.71198 9.61728 2888 ft 121 kts 240°
2026-04-24 20:10 47.70770 9.60614 2747 ft 126 kts 242°
2026-04-24 20:10 47.70341 9.59463 2596 ft 127 kts 243°
2026-04-24 20:11 47.69928 9.58329 2443 ft 123 kts 242°
2026-04-24 20:11 47.69508 9.57249 2260 ft 117 kts 240°
2026-04-24 20:11 47.69354 9.56880 2192 ft 116 kts 239°
2026-04-24 20:11 47.69243 9.56625 2166 ft 114 kts 238°
2026-04-24 20:12 47.69198 9.56523 2153 ft 113 kts 238°
2026-04-24 20:12 47.69118 9.56336 2109 ft 110 kts 238°
2026-04-24 20:12 47.69059 9.56193 2088 ft 106 kts 240°
2026-04-24 20:12 47.68893 9.55759 1999 ft 99 kts 241°
2026-04-24 20:13 47.68572 9.54875 1811 ft 99 kts 243°
2026-04-24 20:13 47.68229 9.53973 1689 ft 102 kts 241°
2026-04-24 20:13 47.67876 9.53064 1553 ft 101 kts 244°
2026-04-24 20:13 47.67519 9.52158 1416 ft 101 kts 241°
2026-04-24 20:14 47.67210 9.51342 1357 ft 70 kts 238°
2026-04-24 20:14 47.67052 9.50946 1348 ft 40 kts 239°
2026-04-24 20:14 47.66916 9.50701 1344 ft 24 kts 212°
2026-04-24 20:14 47.66840 9.50636 1345 ft 0 kts 210°
2026-04-24 20:15 47.66840 9.50635 1347 ft 1 kts 210°
2026-04-24 20:15 47.66794 9.50605 1347 ft 12 kts 187°
2026-04-24 20:15 47.66778 9.50714 1345 ft 17 kts 54°
2026-04-24 20:15 47.66856 9.50916 1345 ft 26 kts 62°
2026-04-24 20:16 47.66868 9.51050 1347 ft 13 kts 150°
2026-04-24 20:16 47.66840 9.51075 1350 ft 13 kts 149°